Regional Weather Roundup
Issued by NWS Portland, ME

Current Version | Previous Version | Text Only | Print | Product List | Glossary Off
Versions: 1 2 3 4 5 6 7 8 9 10 11 12 13 14 15 16 17 18 19 20 21 22 23 24 25 26 27 28 29 30 31 32 33 34 35 36 37 38 39 40 41 42 43 44 45 46 47 48 49 50
000 ASUS41 KGYX 280910 RWRGYX WEATHER ROUNDUP FOR MAINE AND NEW HAMPSHIRE NATIONAL WEATHER SERVICE GRAY ME 500 AM EDT TUE MAR 28 2017 MEZ002-005-006-010-012-015-018-020-021-024-026-027-029-281000- MAINE CITY SKY/WX TMP DP RH WIND PRES REMARKS PORTLAND CLOUDY 32 31 96 VRB7 30.03S SANFORD CLOUDY 32 32 100 N6 30.01F BAR HARBOR CLOUDY 32 31 96 NE6 30.02R WISCASSET CLOUDY 33 32 96 CALM 30.04R ROCKLAND CLOUDY 33 31 92 CALM 30.02S FRYEBURG CLOUDY 32 31 96 CALM 30.01S LEWISTONAUBURN CLOUDY 31 30 96 N6 30.03R AUGUSTA CLOUDY 30 27 88 N5 30.02F WATERVILLE LGT SNOW 30 29 96 N6 29.99S FOG BANGOR CLOUDY 30 29 96 N7 30.03R FOG GREENVILLE N/A 25 25 100 SE3 29.94F MILLINOCKET CLOUDY 27 27 100 NE5 30.05S FOG HOULTON CLOUDY 26 24 92 CALM 30.03S PRESQUE ISLE FLURRIES 25 23 92 NE3 30.06S FRENCHVILLE LGT SNOW 22 19 89 E7 30.01F FOG CARIBOU LGT SNOW 26 21 81 E3 30.04S $$ NHZ002-005-008-009-011-012-014-281000- NEW HAMPSHIRE CITY SKY/WX TMP DP RH WIND PRES REMARKS PORTSMOUTH CLOUDY 34 32 93 N3 30.00F ROCHESTER CLOUDY 33 30 88 N3 29.99F NASHUA CLOUDY 35 34 96 E3 30.01S MANCHESTER CLOUDY 35 31 85 CALM 29.99F CONCORD CLOUDY 34 32 92 CALM 29.99F LACONIA CLOUDY 32 30 93 CALM 30.00S PLYMOUTH CLOUDY 32 32 99 CALM 29.99F FOG BERLIN CLOUDY 33 29 85 S3 29.96R WHITEFIELD CLOUDY 33 30 88 CALM 29.95F FOG JAFFREY FOG 33 33 100 CALM 29.95F VSB 3/4 KEENE CLOUDY 35 34 96 NE5 29.96F LEBANON CLOUDY 35 34 96 CALM 29.96F MT WASHINGTON FOG 34 34 100 W37 N/A VSB 0 WCI 19 $$ VTZ005-007-008-281000- VERMONT CITY SKY/WX TMP DP RH WIND PRES REMARKS ST JOHNSBURY N/A 35 35 100 MISG 29.94F BURLINGTON CLOUDY 42 41 96 CALM 29.90F $$ MAZ007-012-024-CTZ003-RIZ002-NYZ038-NYZ072-281000- SOUTHERN NEW ENGLAND AND NY CITY SKY/WX TMP DP RH WIND PRES REMARKS BOSTON CLOUDY 36 35 96 NE6 30.01F WORCESTER FOG 34 33 96 NE3 29.96R VSB 1/4 NANTUCKET CLOUDY 38 37 97 N7 29.99F FOG PROVIDENCE CLOUDY 40 37 89 NE9 29.98F FOG HARTFORD CLOUDY 38 37 97 CALM 29.98S ALBANY MOCLDY 40 37 89 CALM 29.94S NEW YORK CITY RAIN 42 40 92 N7 29.97R VSB 1/4 $$ ANZ081-ANZ082-ANZ150-NHZ014-MEZ023>029-281000- COASTAL MARINE OBSERVATIONS STATION/POSITION TIME TEMP WIND PRES WAVE AIR SEA DIR/SP/G HT/PER (UTC) (F) (DEG/KT/KT) (MB) (FT/S) MOUNT DESERT ROC 0900 35 1015.1F MATINICUS ROCK 0800 34 10/ 14/ 16 1015.3F ISLE OF SHOALS 0800 34 10/ 11/ 13 1016.1F JEFFREYS LEDGE 0806 41 N/A 5/ 7 CASHES LEDGE BUO 0850 36 40 1015.5S 5/ 5 GEORGES BANK BUO 0850 42 40 1013.9R 5/ 7 $$ .............KEY.............. WCI - WIND CHILL TC - TEMPERATURE IN CELSIUS VSB - VISIBILITY IN MILES HX - HEAT INDEX FAIR- INDICATES FEW OR NO CLOUDS BELOW 12,000 FT, WITH NO SIGNIFICANT WEATHER AND/OR OBSTRUCTIONS TO VISIBILITY.

USA.gov is the U.S. government's official web portal to all federal, state and local government web resources and services.